Weather History for EHGG - May, 2014

Change the Weather History Date:

Tuesday, May 20, 2014

  Actual Average Record
Temperature  
Mean Temperature 68 °F -  
Max Temperature 81 °F 65 °F 81 °F (2014)
Min Temperature 54 °F 47 °F 33 °F (2008)
Cooling Degree Days 2    
Growing Degree Days 18 (Base 50)    
Moisture  
Dew Point 54 °F    
Average Humidity 62    
Maximum Humidity 88    
Minimum Humidity 24    
Precipitation  
Precipitation 0.00 in 0.09 in - ()
Sea Level Pressure  
Sea Level Pressure 29.84 in    
Wind  
Wind Speed 6 mph ()    
Max Wind Speed 12 mph    
Max Gust Speed -    
Visibility 7.1 miles    
Events Rain    
Averages and records for this station are not official NWS values.
T = Trace of Precipitation, MM = Missing Value Source: Averaged Metar Reports

Daily Weather History Graph

Daily Weather History Graph

Search for Another Location

Airport or City:

Trip Planner

Search our weather history database for the weather conditions in past years. The results will help you decide how hot, cold, wet, or windy it might be!

Date:

Astronomy

May. 20, 2014 Rise Set
Actual Time 5:27 AM CEST 9:33 PM CEST
Civil Twilight 4:42 AM CEST 10:19 PM CEST
Nautical Twilight 3:36 AM CEST 11:26 PM CEST
Astronomical Twilight 2:02 AM CEST 12:57 AM CEST
Moon 1:34 AM CEST (5/20) 11:37 AM CEST (5/20)
Length of Visible Light 17h 37m
Length of Day
16h 06m
Waning Gibbous, 63% of the Moon is Illuminated
May 20
Waning Gibbous
May 21
Last Quarter
May 28
New
Jun 5
First Quarter
Jun 13
Full

Hourly Weather History & Observations

Time (CEST) Temp. Heat Index Dew Point Humidity Pressure Visibility Wind Dir Wind Speed Gust Speed Precip Events Conditions
12:00 AM 58 °F - 54 °F 83% 29.81 in 7 mi East 6.7 mph - -  
12:25 AM 57.2 °F - 53.6 °F 88% 29.80 in 6.2 mi East 5.8 mph - N/A   Unknown
12:55 AM 57.2 °F - 53.6 °F 88% 29.80 in 6.2 mi East 5.8 mph - N/A   Unknown
1:00 AM 58 °F - 54 °F 81% 29.81 in 8 mi East 6.7 mph - -  
1:25 AM 57.2 °F - 53.6 °F 88% 29.80 in 6.2 mi East 5.8 mph - N/A   Unknown
1:55 AM 57.2 °F - 53.6 °F 88% 29.80 in 6.2 mi East 4.6 mph - N/A   Unknown
2:00 AM 57 °F - 53 °F 83% 29.81 in 8 mi East 4.5 mph - -   Partly Cloudy
2:25 AM 57.2 °F - 53.6 °F 88% 29.80 in 6.2 mi East 5.8 mph - N/A   Unknown
2:55 AM 57.2 °F - 53.6 °F 88% 29.80 in 6.2 mi East 5.8 mph - N/A   Unknown
3:00 AM 56 °F - 53 °F 85% 29.81 in 7 mi East 4.5 mph - -  
3:25 AM 55.4 °F - 51.8 °F 88% 29.80 in 6.2 mi East 5.8 mph - N/A   Unknown
3:55 AM 55.4 °F - 51.8 °F 88% 29.80 in 6.2 mi East 4.6 mph - N/A   Unknown
4:00 AM 55 °F - 52 °F 88% 29.82 in 6 mi East 4.5 mph - -  
4:25 AM 55.4 °F - 51.8 °F 88% 29.80 in 6.2 mi East 4.6 mph - N/A   Unknown
4:55 AM 55.4 °F - 51.8 °F 88% 29.80 in 5.6 mi ESE 4.6 mph - N/A   Unknown
5:00 AM 55 °F - 52 °F 87% 29.83 in 6 mi East 4.5 mph - -   Mist
5:25 AM 55.4 °F - 51.8 °F 88% 29.80 in 5.0 mi East 5.8 mph - N/A   Unknown
5:55 AM 55.4 °F - 51.8 °F 88% 29.80 in 5.0 mi East 8.1 mph - N/A   Unknown
6:00 AM 55 °F - 52 °F 87% 29.83 in 5 mi ESE 6.7 mph - -   Mist
6:25 AM 55.4 °F - 51.8 °F 88% 29.83 in 5.0 mi East 6.9 mph - N/A   Unknown
6:55 AM 57.2 °F - 53.6 °F 88% 29.83 in 5.0 mi East 5.8 mph - N/A   Unknown
7:00 AM 57 °F - 53 °F 81% 29.83 in 6 mi East 6.7 mph - -   Mist
7:25 AM 57.2 °F - 53.6 °F 88% 29.83 in 5.6 mi ESE 5.8 mph - N/A   Unknown
7:55 AM 59.0 °F - 53.6 °F 82% 29.83 in 6.2 mi ESE 6.9 mph - N/A   Unknown
8:00 AM 60 °F - 55 °F 78% 29.85 in 6 mi ESE 6.7 mph - -   Partly Cloudy
8:25 AM 62.6 °F - 55.4 °F 77% 29.83 in 6.2 mi East 5.8 mph - N/A   Unknown
8:55 AM 64.4 °F - 57.2 °F 77% 29.83 in 6.2 mi East 5.8 mph - N/A   Unknown
9:00 AM 65 °F - 57 °F 67% 29.85 in 8 mi ESE 6.7 mph - -  
9:25 AM 66.2 °F - 57.2 °F 73% 29.83 in 6.2 mi ESE 4.6 mph - N/A   Unknown
9:55 AM 68.0 °F - 57.2 °F 68% 29.86 in 6.2 mi ESE 5.8 mph - N/A   Unknown
10:00 AM 69 °F - 57 °F 56% 29.86 in 10 mi SE 4.5 mph - -  
10:25 AM 71.6 °F - 57.2 °F 60% 29.86 in 6.2 mi SSE 3.5 mph - N/A   Unknown
10:55 AM 73.4 °F - 59.0 °F 61% 29.86 in 6.2 mi SE 4.6 mph - N/A   Unknown
11:00 AM 73 °F - 57 °F 46% 29.87 in 14 mi SSE 4.5 mph - -   Scattered Clouds
11:25 AM 75.2 °F - 59.0 °F 57% 29.86 in 6.2 mi South 6.9 mph - N/A   Unknown
11:55 AM 77.0 °F - 57.2 °F 50% 29.86 in 6.2 mi SSE 5.8 mph - N/A   Unknown
12:00 PM 76 °F - 56 °F 39% 29.86 in 16 mi South 6.7 mph - -   Partly Cloudy
12:25 PM 77.0 °F - 55.4 °F 47% 29.86 in 6.2 mi South 6.9 mph - N/A   Unknown
12:55 PM 77.0 °F - 55.4 °F 47% 29.86 in 6.2 mi SSE 8.1 mph - N/A   Unknown
1:00 PM 77 °F - 54 °F 34% 29.87 in 25 mi South 8.9 mph - -   Overcast
1:25 PM 77.0 °F - 55.4 °F 47% 29.86 in 6.2 mi South 6.9 mph - N/A   Unknown
1:55 PM 78.8 °F - 53.6 °F 42% 29.86 in 6.2 mi SSE 5.8 mph - N/A   Unknown
2:00 PM 79 °F - 54 °F 32% 29.86 in 22 mi SSE 6.7 mph - -   Partly Cloudy
2:25 PM 78.8 °F - 51.8 °F 39% 29.86 in 6.2 mi SSE 11.5 mph - N/A   Unknown
2:55 PM 77.0 °F - 51.8 °F 41% 29.86 in 6.2 mi SSE 9.2 mph - N/A   Unknown
3:00 PM 79 °F - 54 °F 31% 29.86 in 22 mi SE 6.7 mph - -   Partly Cloudy
3:25 PM 78.8 °F - 51.8 °F 39% 29.86 in 6.2 mi SE 8.1 mph - N/A   Unknown
3:55 PM 80.6 °F 80.3 °F 53.6 °F 39% 29.83 in 6.2 mi ESE 10.4 mph - N/A   Unknown
4:00 PM 80 °F - 53 °F 28% 29.86 in 19 mi SE 11.2 mph - -   Scattered Clouds
4:25 PM 80.6 °F 80.3 °F 53.6 °F 39% 29.83 in 6.2 mi SE 11.5 mph - N/A   Partly Cloudy
4:55 PM 80.6 °F - 51.8 °F 37% 29.83 in 6.2 mi SE 9.2 mph - N/A   Unknown
5:00 PM 81 °F - 50 °F 24% 29.85 in 22 mi SSE 11.2 mph - -  
5:25 PM 80.6 °F - 51.8 °F 37% 29.83 in 6.2 mi South 11.5 mph - N/A   Unknown
5:55 PM 78.8 °F - 51.8 °F 39% 29.83 in 6.2 mi SE 9.2 mph - N/A   Unknown
6:00 PM 80 °F - 52 °F 27% 29.84 in 25 mi SSE 6.7 mph - -   Overcast
6:25 PM 77.0 °F - 53.6 °F 44% 29.83 in 6.2 mi SE 6.9 mph - N/A   Partly Cloudy
6:55 PM 77.0 °F - 55.4 °F 47% 29.83 in 6.2 mi ESE 3.5 mph - N/A   Partly Cloudy
7:00 PM 78 °F - 56 °F 36% 29.84 in 19 mi ESE 4.5 mph - -   Mostly Cloudy
7:25 PM 77.0 °F - 53.6 °F 44% 29.83 in 6.2 mi SE 5.8 mph - N/A   Partly Cloudy
7:55 PM 75.2 °F - 51.8 °F 44% 29.83 in 6.2 mi ESE 9.2 mph - N/A   Partly Cloudy
8:00 PM 74 °F - 53 °F 37% 29.84 in 25 mi ESE 6.7 mph - - Rain Rain
8:25 PM 73.4 °F - 55.4 °F 53% 29.83 in 6.2 mi SSE 4.6 mph - N/A   Partly Cloudy
8:55 PM 71.6 °F - 53.6 °F 53% 29.83 in 6.2 mi SE 3.5 mph - N/A   Unknown
9:00 PM 72 °F - 55 °F 44% 29.85 in 28 mi SE 4.5 mph - -   Overcast
9:25 PM 71.6 °F - 53.6 °F 53% 29.83 in 6.2 mi ESE 4.6 mph - N/A   Unknown
9:55 PM 71.6 °F - 55.4 °F 57% 29.86 in 6.2 mi West 9.2 mph - N/A   Unknown
10:00 PM 69 °F - 55 °F 52% 29.88 in 25 mi WNW 8.9 mph - -   Overcast
10:25 PM 68.0 °F - 55.4 °F 64% 29.86 in 6.2 mi NW 9.2 mph - N/A   Unknown
10:55 PM 66.2 °F - 55.4 °F 68% 29.86 in 6.2 mi NNW 5.8 mph - N/A   Unknown
11:00 PM 65 °F - 55 °F 63% 29.87 in 19 mi NNW 6.7 mph - - Rain Rain
11:25 PM 64.4 °F - 55.4 °F 73% 29.86 in 6.2 mi North 5.8 mph - N/A   Unknown
11:55 PM 66.2 °F - 55.4 °F 68% 29.86 in 6.2 mi NNE 5.8 mph - N/A Rain Heavy Rain